GFSCGP_925_spd_330.txt.gz
Wind_Speed
4 5 1 5 3 7 4 4 4 3 4 2 4 7 11 13 12 12 12 12 11 10 16 23 30 35 35 36 38 38 36 35 32 28 24 20 21 19 21 22 19 20 22 22
5 1 2 6 4 3 4 2 3 3 2 4 6 11 10 9 15 16 16 15 13 6 8 15 21 28 34 38 40 40 41 38 34 33 32 25 24 21 19 22 24 22 21 23
3 3 5 3 2 2 2 4 4 7 3 3 4 7 3 5 7 9 10 10 9 14 11 9 16 26 27 34 40 43 43 42 37 37 32 24 23 20 20 19 18 19 23 22
1 1 3 2 3 2 2 6 4 2 1 3 4 5 5 2 7 9 9 8 9 8 6 6 15 18 29 38 34 40 39 40 41 39 34 33 28 19 19 16 15 13 14 16
4 5 4 2 5 5 3 6 3 2 2 5 2 2 8 0 5 10 9 9 9 8 10 12 15 23 20 17 26 32 36 37 37 38 36 31 28 25 19 15 12 10 8 9
5 1 3 7 4 4 5 4 6 5 3 2 2 4 8 3 3 2 4 10 11 11 8 10 17 20 24 23 24 28 28 36 34 31 31 31 30 22 12 10 6 3 6 5
1 4 4 4 1 3 4 5 3 4 3 5 4 1 10 6 5 4 6 6 7 7 7 3 2 14 23 30 30 35 31 30 31 32 27 25 17 12 8 4 4 9 8 6
0 6 7 5 6 5 3 6 5 5 4 5 3 6 6 4 7 6 4 3 5 6 5 6 5 4 13 23 35 31 33 26 28 28 24 18 11 11 11 14 18 18 13 10
4 6 1 2 3 4 2 4 3 4 3 2 3 7 9 3 4 3 3 1 4 5 5 4 2 1 2 15 29 26 23 21 21 22 18 14 15 12 8 6 14 10 6 5
5 4 1 1 3 1 5 4 1 3 2 4 4 5 5 8 7 3 4 4 2 4 6 4 2 1 4 9 18 20 21 22 19 17 14 12 20 11 6 16 13 11 8 9
5 3 6 1 3 6 1 0 5 4 4 4 2 6 7 8 9 8 7 6 4 2 5 4 4 5 8 8 16 24 25 24 22 21 16 8 14 14 22 22 13 12 12 12
4 5 4 2 4 2 1 3 4 4 5 2 4 6 4 8 12 7 7 4 3 3 3 4 5 8 8 14 18 22 25 23 25 14 12 14 13 19 17 16 15 14 12 11
5 2 3 8 6 4 1 2 5 5 3 5 3 6 0 4 7 7 9 7 6 4 4 4 6 8 10 12 16 22 22 21 18 15 16 15 16 15 16 18 17 14 14 12
7 3 6 7 6 3 2 3 3 4 3 3 6 7 9 6 8 5 4 2 2 4 4 4 4 6 10 14 16 19 18 20 19 20 20 21 18 18 18 17 14 12 11 11
4 3 3 5 6 4 5 7 5 7 7 6 8 8 13 8 14 14 7 5 6 6 5 5 5 4 6 11 14 17 16 15 17 19 19 19 18 17 17 15 12 12 10 10
3 2 5 4 5 7 6 9 9 7 4 8 7 8 3 5 5 10 11 8 7 9 7 7 7 8 8 11 15 18 21 18 20 19 20 21 20 18 15 13 14 13 13 10
3 6 3 6 3 5 5 7 5 4 4 5 5 8 2 4 8 7 9 10 10 8 8 8 7 9 11 13 16 18 21 20 20 21 19 18 18 16 15 14 14 12 11 10
5 5 2 3 3 3 8 5 6 5 5 5 7 6 2 3 3 4 6 10 7 6 7 8 8 9 9 11 11 15 20 19 17 18 17 16 16 15 15 14 14 12 10 8
3 5 2 2 3 6 3 3 2 3 6 5 5 1 2 1 3 3 3 4 8 8 6 11 16 17 16 13 14 16 16 16 16 16 16 15 15 14 12 12 11 9 8 6
5 4 4 3 2 4 7 1 2 3 5 3 5 4 4 2 1 4 2 5 7 11 15 18 20 18 16 17 18 17 16 16 16 15 14 13 12 11 11 10 9 9 7 8
2 2 2 3 4 7 6 4 1 1 7 2 5 6 6 5 6 5 3 2 8 13 16 18 21 19 20 21 21 20 19 18 15 13 12 11 12 11 9 8 8 8 9 10
5 3 3 2 1 6 2 2 4 5 4 4 5 6 7 10 4 1 5 5 5 7 16 20 21 21 21 23 24 23 21 17 15 13 12 13 12 11 11 9 8 9 10 10
2 6 4 8 6 4 2 4 3 3 5 4 5 9 9 5 2 6 5 6 5 9 14 21 23 21 25 27 27 25 21 17 16 15 15 15 12 12 11 10 10 10 11 11
3 4 3 1 5 5 4 4 5 5 6 7 9 3 5 4 5 5 4 6 5 8 13 19 20 22 24 29 28 24 19 18 18 18 15 13 12 11 12 13 13 13 15 16
5 5 4 5 7 6 5 7 6 8 6 9 10 5 3 6 6 5 5 6 10 13 15 21 22 21 26 31 28 24 21 20 19 18 15 16 16 15 14 14 15 16 18 17
5 7 5 7 8 6 7 5 5 6 6 6 3 2 5 6 9 6 6 8 13 14 18 19 21 22 26 28 26 23 22 22 20 19 19 20 20 19 18 17 16 16 17 19

GFSCGP_925_spd_333.txt.gz
Wind_Speed
2 1 3 4 5 6 6 4 4 7 7 5 12 14 12 14 16 17 18 18 19 20 23 23 24 25 25 24 25 27 26 25 25 23 19 17 17 16 17 20 19 18 17 17
1 1 7 6 4 4 2 2 3 7 5 5 8 16 10 15 21 21 21 19 20 20 18 21 24 25 28 27 28 29 33 33 30 21 18 14 14 14 14 15 18 19 17 17
2 2 4 4 3 6 2 1 1 4 6 2 9 9 5 9 15 17 19 19 19 19 20 19 21 27 27 28 31 35 39 38 36 31 20 18 18 15 13 13 13 16 19 21
4 2 2 3 5 1 4 4 5 5 4 4 6 6 5 1 8 17 19 19 20 21 18 17 20 21 29 32 28 31 38 39 39 33 23 23 19 17 13 9 9 7 8 8
3 2 3 4 2 2 2 3 4 3 2 7 3 4 5 1 5 10 17 19 21 21 20 19 21 23 25 24 30 33 33 31 30 32 30 23 20 14 9 10 9 7 3 2
3 1 4 4 2 1 4 2 4 3 1 2 2 3 8 3 2 4 4 15 17 15 15 16 18 16 16 19 23 23 33 30 26 31 29 23 15 10 8 6 5 3 10 11
2 3 2 4 4 1 4 1 3 2 1 2 0 4 11 4 7 7 9 7 12 13 12 10 12 14 17 18 20 21 25 23 26 27 27 19 11 7 8 8 8 8 9 10
4 4 7 9 5 1 5 3 3 5 5 6 2 5 4 2 4 4 4 3 3 6 9 7 4 4 15 21 25 30 31 28 26 20 15 14 17 17 15 10 7 7 10 11
4 4 2 6 4 4 6 6 1 3 1 4 2 5 10 2 3 1 2 2 3 3 3 2 2 3 2 11 18 15 17 24 22 21 18 22 22 17 20 15 10 8 5 9
1 6 2 2 4 3 3 5 3 2 4 7 4 5 6 12 12 8 5 7 5 4 2 1 2 5 6 8 9 17 20 22 24 24 24 28 24 17 17 15 11 12 10 9
5 4 1 3 5 4 4 4 2 0 3 6 8 6 2 10 11 13 9 7 5 5 3 2 3 5 7 6 3 11 17 23 26 27 31 32 32 25 18 12 16 13 12 12
3 2 4 0 2 3 2 2 2 3 5 3 4 8 3 8 12 10 9 6 5 5 7 5 4 2 2 3 11 16 20 22 24 27 25 25 26 20 13 12 18 15 13 16
7 3 3 3 4 3 3 3 3 2 1 9 9 10 3 9 13 11 7 9 10 6 8 6 5 6 6 7 9 16 16 22 24 26 21 19 17 16 17 17 17 16 16 15
3 2 5 9 5 1 4 5 6 6 6 14 12 19 15 15 16 16 7 8 9 10 10 7 7 7 9 10 10 11 15 20 22 20 21 21 19 18 18 18 17 16 15 14
1 3 3 4 4 4 7 9 10 10 15 11 19 17 17 18 15 15 11 5 8 7 8 7 7 7 10 12 11 10 12 14 19 21 17 16 17 16 15 14 12 11 11 10
1 3 2 6 8 9 11 13 14 16 16 14 18 15 14 6 10 8 2 3 7 6 7 8 9 11 12 12 13 10 8 10 11 14 16 15 16 15 14 13 12 11 10 10
2 3 3 14 4 6 11 15 16 12 8 8 12 13 5 12 9 7 5 6 8 7 8 9 11 14 13 13 14 13 10 7 8 11 13 14 14 13 14 13 11 11 11 10
4 3 3 6 2 8 3 3 7 11 13 10 12 13 8 6 6 7 5 6 7 7 7 9 11 14 16 13 13 14 19 10 10 12 13 14 15 14 12 13 13 12 11 10
4 4 3 4 6 7 10 2 2 3 9 5 9 12 6 3 4 4 4 8 9 8 9 12 15 15 16 19 19 22 15 15 13 13 14 15 15 15 15 14 14 13 12 12
4 1 4 3 6 8 1 2 3 3 8 1 4 10 8 2 5 1 3 6 9 10 10 13 15 16 16 16 19 26 18 15 14 15 15 15 16 16 16 16 16 14 13 11
3 2 8 7 7 7 2 2 3 5 5 5 6 9 8 7 3 3 2 6 7 11 12 13 17 17 17 18 18 19 17 16 16 15 15 15 16 15 15 14 13 12 11 10
7 5 4 2 4 9 2 3 4 4 5 7 9 10 11 8 2 5 5 4 6 10 12 14 16 18 17 19 19 17 18 17 16 16 16 15 15 14 13 13 12 12 12 11
4 5 4 6 4 1 3 7 7 5 9 10 9 9 6 7 8 6 3 5 8 9 12 13 16 19 19 18 18 19 19 18 18 17 17 16 15 14 14 14 12 11 10 11
4 4 4 1 5 6 6 6 11 9 11 12 10 11 7 6 2 5 6 6 7 10 10 15 16 18 18 19 20 20 18 19 19 19 17 16 16 15 14 13 12 11 10 11
3 6 5 6 9 11 13 11 11 9 9 10 9 10 11 8 6 5 5 8 11 10 11 15 17 18 21 22 22 20 18 19 19 17 15 15 16 15 13 13 12 12 12 11
5 11 8 12 13 11 13 7 4 9 8 7 6 3 5 5 7 4 8 11 11 12 13 14 16 18 18 22 23 22 20 21 19 16 16 16 15 14 13 12 12 15 16 16

GFSCGP_925_spd_336.txt.gz
Wind_Speed
2 10 3 5 5 1 3 2 6 4 2 8 14 13 12 11 15 15 16 17 17 18 20 23 23 22 20 20 20 19 20 19 20 20 20 18 17 15 14 14 12 10 9 8
10 2 3 2 3 5 5 6 6 1 2 7 11 15 12 10 14 16 16 17 18 18 17 21 23 23 24 23 22 22 22 22 22 21 20 19 17 16 14 13 11 10 9 9
7 7 3 2 1 6 4 8 8 10 8 7 10 6 3 6 11 13 15 15 18 18 18 19 23 25 25 25 26 28 26 25 24 23 19 16 12 12 12 12 11 9 8 9
2 4 2 3 3 6 3 5 9 11 10 8 4 4 2 2 2 10 14 17 18 19 18 17 21 24 26 28 27 27 28 29 28 26 22 21 18 17 16 14 7 4 2 3
6 1 5 6 3 4 5 4 7 10 10 7 6 6 8 4 5 1 8 14 18 19 19 20 19 22 23 23 24 24 26 30 29 28 28 22 20 16 13 6 5 4 1 3
8 3 6 3 1 3 2 8 9 6 5 3 7 6 2 11 10 6 7 5 10 15 18 17 22 21 20 15 18 21 23 26 27 26 26 24 18 16 6 5 4 2 3 4
4 7 2 5 6 4 6 10 4 3 2 5 5 8 6 12 9 9 11 9 6 9 13 13 14 15 13 18 17 18 20 22 29 28 19 18 14 11 10 10 8 6 3 2
6 7 8 9 6 8 4 9 7 7 8 10 2 4 6 8 7 8 8 8 5 5 8 10 9 7 14 15 13 18 20 20 26 25 15 15 21 21 19 16 11 4 4 3
4 5 4 6 3 7 6 7 8 11 13 8 4 5 10 6 7 10 10 5 4 2 2 3 4 5 4 12 15 18 17 17 23 23 29 25 22 20 18 11 11 18 20 15
2 10 4 6 5 8 10 6 7 6 7 11 12 13 8 11 17 15 14 11 4 3 4 4 5 5 4 6 9 16 18 20 20 23 26 28 23 20 15 17 19 19 16 14
8 7 3 5 10 9 6 10 7 8 7 11 13 9 15 12 12 17 15 12 5 6 4 2 1 0 1 3 6 12 19 21 23 26 31 28 34 35 33 21 12 20 17 14
1 7 10 11 3 3 9 11 9 9 11 10 9 14 7 6 14 17 17 10 4 2 3 1 2 3 2 1 4 10 14 20 26 25 30 23 26 24 20 16 18 19 16 14
3 8 10 12 11 9 8 8 11 10 12 15 12 10 11 14 16 16 15 7 2 4 7 5 3 2 1 2 4 10 14 18 22 22 22 25 27 24 21 21 20 19 16 16
2 13 12 13 15 9 12 12 11 14 11 14 15 19 19 16 15 15 14 10 7 8 8 7 4 2 0 2 3 7 12 19 21 21 20 20 21 18 14 18 21 19 18 17
6 12 11 14 12 13 16 16 15 17 16 18 21 22 19 16 11 11 10 6 8 9 11 7 7 6 6 6 7 7 10 14 18 18 17 16 14 14 15 17 16 16 16 15
8 13 10 17 17 17 19 18 20 21 21 22 20 19 11 9 8 11 7 4 6 11 9 8 8 9 11 11 12 12 11 12 13 14 14 15 17 16 17 16 16 14 13 12
14 12 13 17 16 14 15 17 17 14 15 16 15 15 17 12 13 9 7 3 4 3 6 8 9 12 12 11 12 14 14 15 14 14 15 15 15 15 14 14 13 12 12 11
13 11 11 13 12 15 5 2 5 12 14 15 15 13 13 10 10 8 3 3 3 5 9 11 13 16 16 14 13 9 15 16 16 12 14 18 15 14 13 12 13 13 13 13
11 11 8 7 10 14 14 9 3 9 14 14 8 9 11 8 9 11 2 1 5 5 7 13 15 14 15 16 15 16 16 15 15 14 13 13 14 13 12 13 13 13 12 12
7 8 8 9 11 11 4 3 3 5 12 10 7 11 13 12 9 7 3 5 6 7 8 11 15 16 17 16 16 16 14 14 16 14 13 13 12 13 13 13 13 12 11 9
10 9 14 13 13 10 4 4 1 9 4 11 11 11 12 10 5 5 7 8 6 5 10 12 17 18 17 17 16 15 15 15 13 14 13 12 12 13 12 12 11 11 10 9
10 7 9 10 13 15 8 6 7 9 11 11 10 10 10 9 5 6 8 6 4 6 10 12 15 15 17 18 18 18 16 15 15 14 14 14 13 12 12 12 11 11 13 14
10 13 9 5 3 7 2 7 11 8 9 9 9 10 9 8 5 1 4 5 4 8 10 12 14 18 17 19 19 18 17 17 17 16 15 15 15 15 14 15 15 15 15 15
11 6 8 12 10 14 11 10 11 11 10 9 8 9 9 9 8 7 5 5 5 6 8 13 13 18 19 19 19 19 20 19 19 18 17 16 16 16 15 16 16 16 15 16
7 2 10 14 15 15 17 15 11 9 8 8 7 8 9 9 9 8 2 4 7 8 11 13 16 17 18 19 20 21 21 21 19 18 17 17 17 18 16 17 16 16 16 16
11 13 12 13 12 11 14 12 12 9 10 9 8 9 4 5 5 9 7 8 8 10 12 14 16 15 18 21 22 22 22 22 20 19 19 18 16 15 16 15 15 18 18 13

GFSCGP_925_spd_342.txt.gz
Wind_Speed
13 2 5 18 21 1 4 3 7 10 19 11 14 7 4 22 20 23 18 18 16 15 17 22 20 21 22 22 23 21 22 19 28 22 21 19 18 19 17 19 17 21 16 16
1 2 17 16 22 5 8 10 11 15 16 17 2 20 23 13 16 21 18 16 17 17 15 19 24 22 23 26 27 26 22 21 25 23 23 21 21 22 21 20 22 18 11 11
4 13 15 8 3 5 9 11 8 9 5 11 6 17 17 25 25 8 3 19 15 18 19 20 24 26 26 30 33 33 30 29 27 25 23 23 18 19 21 19 22 25 23 18
9 15 5 7 7 9 3 7 11 9 4 4 15 5 4 15 20 3 3 3 5 14 8 11 18 28 30 30 34 32 34 32 31 29 24 22 19 15 16 12 11 20 16 17
2 5 10 9 3 5 9 10 10 14 10 5 5 9 6 15 9 11 12 11 8 12 15 19 14 29 31 32 31 27 36 32 28 32 25 27 20 20 11 9 12 14 13 12
9 13 5 8 4 6 12 15 14 16 11 6 8 7 8 7 9 10 9 10 12 12 12 4 25 26 15 26 31 39 37 37 36 32 34 24 27 18 11 11 10 8 7 7
14 14 5 3 9 3 13 14 4 5 3 3 7 1 10 15 11 7 4 4 5 6 9 9 19 15 33 25 23 24 39 34 36 35 31 28 5 6 6 9 10 8 10 4
6 5 6 8 3 8 12 9 10 12 9 3 4 4 8 15 14 10 8 5 7 6 11 13 13 20 17 28 35 23 31 30 33 29 23 10 14 12 5 2 2 3 3 4
9 8 4 6 4 3 6 10 16 10 14 6 5 12 18 10 12 13 9 11 12 7 6 9 15 10 24 6 16 21 23 23 28 31 29 24 24 21 7 7 9 5 6 11
12 9 7 10 4 13 8 8 8 6 5 7 10 8 10 10 10 10 8 9 10 9 6 2 5 11 9 3 12 18 20 22 23 20 27 27 33 31 24 16 26 24 16 16
9 11 13 3 10 8 8 6 11 11 6 6 10 7 12 9 6 6 6 9 10 8 10 6 6 6 7 9 5 6 19 21 19 21 24 28 35 33 34 26 23 14 11 10
15 12 11 17 17 6 8 8 10 8 11 11 12 10 6 7 3 6 8 11 11 6 8 7 5 7 8 8 7 12 5 18 23 24 27 31 36 35 27 25 18 17 20 13
10 8 9 11 13 9 3 5 10 10 11 12 11 10 7 11 13 10 11 9 9 10 6 4 4 6 6 3 4 10 14 10 22 32 31 28 27 32 16 16 20 17 16 15
3 12 13 12 18 17 14 14 15 14 12 15 15 17 15 17 16 8 7 9 9 7 3 3 5 5 3 5 3 6 9 9 8 24 29 30 32 25 14 13 15 18 14 17
4 12 13 16 17 18 20 20 18 19 16 16 18 18 16 13 14 14 12 10 7 4 6 3 5 7 8 3 1 2 8 8 6 14 25 25 24 20 17 20 23 24 25 23
9 12 13 17 19 19 20 20 19 19 20 17 18 15 12 14 13 12 10 11 10 4 2 2 4 9 6 4 2 3 3 6 6 7 15 17 22 21 22 22 22 21 18 16
15 12 13 17 19 20 17 19 18 13 8 11 12 13 14 12 12 10 12 12 9 5 5 4 7 6 5 5 6 6 5 4 5 9 16 13 12 15 15 14 14 14 16 17
15 12 10 14 15 18 19 14 9 9 10 7 7 11 9 9 9 12 9 11 9 10 5 7 6 6 6 7 9 10 9 8 7 8 8 11 13 13 15 15 15 16 17 18
15 13 11 13 14 20 22 13 5 6 9 12 8 8 7 10 10 5 8 5 7 8 7 11 10 8 8 7 13 13 11 10 11 11 12 16 17 17 17 15 16 15 16 15
9 6 9 11 16 20 16 19 7 3 8 9 7 5 7 10 8 7 11 12 11 15 10 10 10 9 10 6 10 11 14 14 15 14 12 16 18 18 19 17 17 15 16 15
9 10 11 11 16 16 16 9 6 6 2 5 6 7 10 8 7 9 12 15 8 10 10 3 13 10 10 12 11 10 9 10 9 11 14 15 16 17 18 15 17 14 15 13
16 12 12 11 15 19 12 2 4 5 1 4 8 11 10 10 9 10 11 8 7 6 13 9 12 11 13 14 13 11 10 12 13 14 14 14 15 14 14 15 15 13 13 11
12 12 10 12 12 4 4 3 5 7 6 7 7 10 11 10 9 11 10 11 4 8 10 10 7 8 12 15 16 14 14 14 17 16 15 15 14 11 17 13 13 14 14 13
15 12 12 12 13 16 13 13 13 11 9 9 10 12 9 10 10 8 8 11 5 9 11 8 9 9 12 14 16 17 14 16 16 13 13 14 15 15 18 19 18 17 18 18
13 13 14 14 11 13 12 11 8 8 8 11 12 12 12 12 7 7 7 7 2 8 11 9 22 17 14 14 17 19 20 19 17 16 15 15 16 18 16 17 18 21 21 19
14 14 11 11 12 11 10 13 14 13 11 12 13 14 12 13 8 9 4 4 5 6 11 14 5 13 12 15 18 19 20 21 18 17 17 18 19 23 21 21 20 22 21 15